ONEWEB-0252, 48970

Orbit data source: Space-Track

ONEWEB-0252, 48970 is a payload satellite owned by One Web (NAA) (UK) in LEO that was launched on Thu, 01 Jul 2021 UTC via a SOYUZ-2-1B launch vehicle from the Vostochny Cosmodrome (VOSTO). Payload-class satellites include a variety of spacecraft equipped with specific instruments for various scientific and technological missions. These include communications satellites like Starlink; space stations such as the ISS; scientific satellites like the Hubble; Earth observation satellites from companies like Planet Labs, Umbra, and HawkEye 360; GPS; miniature CubeSats for education and research; and military/defense satellites.

Loading next visibility...
Identifier
48970, 2021-060D
Orbit
LEO
Country
Flag of UKUK
Related business
Manufacturer
One Web
Mission
Operational Commercial Communications
Bus & Motor
ARROW, Unknown motor
Mass
148 kg wet, ~140 kg dry
Launch date (UTC)
2021-07-01 (5 years ago)
Launch vehicle
SOYUZ-2-1B
Launch site
Vostochny Cosmodrome (VOSTO)
Object type
Payload
Rocket body
Debris
Shape & HBR
Trap Box + 2 Pan, 6.7 m
Radar Cross Section
3.464 m², Large (>1 m²)

Expand to show TLE details & history
Last TLE update: 2 days ago

TLE from 2 days ago
0 ONEWEB-0252
1 48970U 21060D   26171.42763641 -.00000031  00000-0 -11480-3 0  9990
2 48970  87.9094 228.1268 0001893  92.7485 267.3863 13.16594154240080
Epoch: 2026-06-20T10:15Z
TLE epoch observation values (Epoch: 2026-06-20T10:15:47.785Z)
Latitude
-0°
Longitude
165.53529°
Altitude
1,200.72 km
Speed
7.254 km/s
True Right ascension
15h 12m 30s
True Declination
0° 00' 00"
Sunlit
Object was in full shadow at epoch
Visualization orbit readout
Latitude
Unknown
Longitude
Unknown
Altitude
Unknown
Speed
Unknown
Apparent Right ascension
Unknown
Apparent Declination
Unknown
Sunlit
N/A
Visualization observer readout
Local Sidereal Time
21:55:06
Azimuth
Unknown
Elevation
Unknown
Doppler factor
Unknown
Orbital elements
Apogee altitude
1,196.301 km
Perigee altitude
1,193.434 km
Semi-major axis
7,573.004 km
Eccentricity
0.00019
Inclination
87.9094°
RAAN
228.1268°
Arg. of periapsis
92.7485°
True anomaly
267.36463°
Mean anomaly
267.3863°
Eccentric anomaly
267.37547°
Mean motion
3.29337 °/min
Orbital period
109.31 mins
BSTAR
-0.0001148
Loading maneuver chart data...
Computing Atmospheric mass density...
Loading historical data...
Loading historical data...
Loading historical data...
Loading historical data...
Loading historical data...
Loading historical data...
Loading historical data...

Documentation

Showing up to 5 results
|